Location: Northcutt
(34.7304°N, 84.4305°W)
Time: 15:09:47
(UTC+00:00)

Hubble Space Telescope - Pass Details

Date: 16 August 2022
Orbit: 531 x 535 km, 28.5° (Epoch: 27 September)

Event Time Altitude Azimuth Distance (km) Brightness Sun altitude
Rises 02:07:50 0° 256° (WSW) 2,666 4.9 -19.8°
Reaches altitude 10° 02:11:49 10° 218° (SW) 1,774 3.4 -20.5°
Enters shadow 02:12:46 11° 204° (SSW) 1,726 3.2 -20.6°
